Retour au catalogue

CZ-6A DEB

ActifPO
NORAD 64650·DEBRIS·🇨🇳 China

Lancé Aug 6, 2024 depuis Taiyuan Satellite Launch Center

Loading…

Prochains Passages (prochaines 24 heures)

TLE

FraisSource: Space-Track

Époque: Sep 14, 2026, 10:01 UTC

1 64650U 24140AEQ 26257.41756210  .00019785  00000-0  15712-2 0  9998
2 64650  88.9408 251.1389 0048568 212.0501 147.7779 14.99445143104383

Suivez CZ-6A DEB en temps réel avec AllMySat

Download on the App Store